DW8397 Weather Reports


Display with metric or nautical units.
time (UTC)temp
F
wind
direction
speed
MPH
gust
MPH
rain 1hr
in
rain 24hr
in
rain mn
in
humidity
%
barometer
mb
20260831210034 73 219 0.0 0.0 0.00 0.00 0.00 61 1016.9
20260831204533 73 262 0.0 3.0 0.00 0.00 0.00 58 1016.9
20260831203031 74 214 0.0 5.0 0.00 0.00 0.00 59 1017.0
20260831201531 74 346 1.0 11.0 0.00 0.00 0.00 57 1017.1
20260831200040 74 205 1.0 9.0 0.00 0.00 0.00 58 1017.2
20260831194531 75 325 2.0 7.0 0.00 0.00 0.00 53 1017.2
20260831193037 76 159 0.0 7.0 0.00 0.00 0.00 55 1017.4
20260831191534 75 308 0.0 6.0 0.00 0.00 0.00 58 1017.4
20260831190027 75 188 2.0 7.0 0.00 0.00 0.00 55 1017.5
20260831184526 75 184 0.0 3.0 0.00 0.00 0.00 59 1017.5
20260831183021 74 298 0.0 4.0 0.00 0.00 0.00 61 1017.5
20260831181522 73 245 0.0 2.0 0.00 0.00 0.00 62 1017.9
20260831180024 73 221 0.0 2.0 0.00 0.00 0.00 61 1017.9
20260831174522 73 302 0.0 0.0 0.00 0.00 0.00 63 1018.1
20260831173015 73 276 0.0 6.0 0.00 0.00 0.00 66 1018.2
20260831171515 72 183 0.0 0.0 0.00 0.00 0.00 64 1018.2
20260831170015 72 306 0.0 2.0 0.00 0.00 0.00 66 1018.3
20260831164528 72 314 0.0 0.0 0.00 0.00 0.00 68 1018.5
20260831163013 72 309 0.0 0.0 0.00 0.00 0.00 69 1018.6
20260831161512 72 184 0.0 0.0 0.00 0.00 0.00 66 1018.8
20260831160011 72 164 0.0 0.0 0.00 0.00 0.00 69 1018.9
20260831154511 72 185 0.0 0.0 0.00 0.00 0.00 69 1018.9
20260831153010 72 184 0.0 0.0 0.00 0.00 0.00 66 1019.0
20260831151512 73 211 0.0 0.0 0.00 0.00 0.00 70 1018.9
20260831150010 72 285 0.0 0.0 0.00 0.00 0.00 70 1018.8
20260831144510 70 191 0.0 0.0 0.00 0.00 0.00 70 1019.0
20260831143106 69 151 0.0 0.0 0.00 0.00 0.00 72 1019.0
20260831141607 68 171 0.0 0.0 0.00 0.00 0.00 77 1019.1
20260831140050 67 210 0.0 0.0 0.00 0.00 0.00 82 1019.1
20260831134550 65 189 0.0 0.0 0.00 0.00 0.00 88 1019.2
20260831133041 61 188 0.0 0.0 0.00 0.00 0.00 88 1019.2
20260831131537 60 188 0.0 0.0 0.00 0.00 0.00 87 1019.0
20260831130033 58 292 0.0 0.0 0.00 0.00 0.00 88 1019.1
20260831124529 56 193 0.0 0.0 0.00 0.00 0.00 88 1019.0
20260831123025 54 193 0.0 0.0 0.00 0.00 0.00 88 1019.1
20260831121524 53 195 0.0 0.0 0.00 0.00 0.00 89 1019.2
20260831120034 52 319 0.0 0.0 0.00 0.00 0.00 89 1019.1
20260831114530 52 319 0.0 0.0 0.00 0.00 0.00 89 1019.3
20260831113019 52 319 0.0 0.0 0.00 0.00 0.00 89 1019.1
20260831111518 52 319 0.0 0.0 0.00 0.00 0.00 89 1019.0
20260831110016 52 319 0.0 0.0 0.00 0.00 0.00 89 1018.9
20260831104514 52 319 0.0 0.0 0.00 0.00 0.00 89 1018.7
20260831103012 53 319 0.0 0.0 0.00 0.00 0.00 89 1018.6
20260831101510 53 319 0.0 0.0 0.00 0.00 0.00 89 1018.6
20260831100008 53 319 0.0 0.0 0.00 0.00 0.00 89 1018.5
20260831094506 54 319 0.0 0.0 0.00 0.00 0.00 89 1018.4
20260831093010 55 319 0.0 0.0 0.00 0.00 0.00 89 1018.4
20260831091507 55 319 0.0 0.0 0.00 0.00 0.00 89 1018.2
20260831090100 55 319 0.0 0.0 0.00 0.00 0.00 89 1018.1
20260831084608 56 319 0.0 0.0 0.00 0.00 0.00 89 1017.9
20260831083105 56 319 0.0 0.0 0.00 0.00 0.00 89 1017.8
20260831081554 56 321 0.0 5.0 0.00 0.00 0.00 89 1017.7
20260831080052 57 329 0.0 5.0 0.00 0.00 0.00 89 1017.6
20260831074550 57 23 0.0 0.0 0.00 0.00 0.00 89 1017.5
20260831073054 58 34 0.0 0.0 0.00 0.00 0.00 89 1017.4
20260831071546 58 34 0.0 0.0 0.00 0.00 0.00 89 1017.6
20260831070045 59 34 0.0 0.0 0.00 0.00 0.00 89 1017.4
20260831064544 59 34 0.0 0.0 0.00 0.00 0.00 89 1017.4
20260831063042 59 34 0.0 0.0 0.00 0.00 0.00 89 1017.4
20260831061541 60 12 0.0 0.0 0.00 0.00 0.00 89 1017.3
20260831060045 60 12 0.0 0.0 0.00 0.00 0.00 89 1017.5
20260831054538 61 11 0.0 0.0 0.00 0.00 0.00 89 1017.6
20260831053038 61 11 0.0 0.0 0.00 0.00 0.00 89 1017.5
20260831051538 60 13 0.0 0.0 0.00 0.00 0.00 89 1017.5
20260831050036 60 5 0.0 0.0 0.00 0.00 0.00 89 1017.5
20260831044534 60 5 0.0 0.0 0.00 0.00 0.00 89 1017.4
20260831043033 61 5 0.0 0.0 0.00 0.00 0.00 89 1017.3
20260831041532 61 13 0.0 0.0 0.00 0.00 0.00 89 1017.3
20260831040032 61 13 0.0 0.0 0.00 0.00 0.00 89 1017.0
20260831034529 61 355 0.0 0.0 0.00 0.00 0.00 89 1017.1
20260831033035 62 331 0.0 0.0 0.00 0.00 0.00 88 1017.2
20260831031530 62 331 0.0 0.0 0.00 0.00 0.00 88 1017.1
20260831030028 63 284 0.0 0.0 0.00 0.00 0.00 88 1017.2
20260831024527 63 283 0.0 0.0 0.00 0.00 0.00 87 1017.1
20260831023027 64 234 0.0 0.0 0.00 0.00 0.00 87 1017.0
20260831021527 64 238 0.0 0.0 0.00 0.00 0.00 87 1017.1
20260831020026 64 345 0.0 0.0 0.00 0.00 0.00 87 1017.1
20260831014525 64 130 0.0 0.0 0.00 0.00 0.00 86 1017.0
20260831013025 65 130 0.0 0.0 0.00 0.00 0.00 86 1016.8
20260831011525 65 336 0.0 0.0 0.00 0.00 0.00 85 1016.7
20260831010025 65 274 0.0 0.0 0.00 0.00 0.00 85 1016.5
20260831004523 65 187 0.0 8.0 0.00 0.00 0.00 85 1016.4
20260831003022 65 258 0.0 13.0 0.00 0.00 0.00 86 1016.2
20260831001523 65 281 0.0 0.0 0.00 0.00 0.00 86 1015.8
20260831000024 65 317 0.0 8.0 0.00 0.00 0.00 86 1016.0
20260830234529 66 304 0.0 5.0 0.00 0.00 0.00 87 1015.7
20260830233021 66 225 0.0 4.0 0.00 0.00 0.00 86 1015.5
20260830231520 67 283 0.0 2.0 0.00 0.00 0.00 85 1015.3
20260830230020 68 300 0.0 3.0 0.00 0.00 0.00 83 1015.3
20260830224520 68 309 0.0 3.0 0.00 0.00 0.00 80 1015.3
20260830223020 69 236 0.0 8.0 0.00 0.00 0.00 78 1015.6
20260830221519 69 298 0.0 7.0 0.00 0.00 0.00 78 1015.6
20260830220020 69 260 0.0 7.0 0.00 0.00 0.00 77 1015.5
20260830214519 69 212 0.0 8.0 0.00 0.00 0.00 77 1015.4
20260830213017 70 173 0.0 6.0 0.00 0.00 0.00 77 1015.1
20260830211516 70 209 0.0 6.0 0.00 0.00 0.00 76 1015.4